Wetbulb
61.82 61.35 60.65 59.80 59.16 58.91 58.68 57.88 56.73 55.76 55.35 54.87 54.40 53.67 52.63 52.80 52.85 52.44 52.65 51.99 50.99 50.80 50.95 51.04 51.40 52.17 48.89 43.55 44.21 51.76 59.34 58.60 53.22 48.87 46.30 45.83 44.36 42.70 38.10 38.86 39.90 39.58 42.28 44.16 44.86 44.70 44.45
61.10 61.01 60.48 59.89 59.35 58.74 58.77 58.04 56.79 55.55 54.91 54.40 54.01 53.52 52.57 52.47 51.83 51.28 50.72 50.94 50.66 50.35 50.52 50.90 51.37 51.47 45.70 35.76 46.10 51.81 55.12 53.18 53.19 49.59 48.37 46.81 46.52 46.69 42.45 40.28 38.03 41.19 40.94 40.93 42.21 42.23 42.62
60.01 60.77 60.43 59.80 59.15 58.51 58.12 57.40 56.53 55.37 54.49 54.29 53.67 53.28 52.79 51.60 50.81 50.31 50.29 50.22 50.58 50.26 50.39 50.88 51.54 49.62 44.71 40.71 47.35 50.26 51.76 47.86 48.79 50.88 47.67 49.36 48.81 43.60 42.87 41.03 44.80 43.36 38.86 40.33 40.50 40.13 39.85
58.68 59.74 60.58 59.84 58.98 58.08 57.40 57.06 56.05 55.14 54.16 53.36 52.92 52.43 52.16 50.54 50.00 49.85 49.88 50.18 50.24 50.07 50.75 51.41 52.04 49.07 41.00 50.91 49.63 49.27 48.40 47.32 47.73 46.94 46.47 46.55 45.78 43.22 41.31 42.74 40.99 38.43 37.20 31.97 38.04 40.70 41.96
58.15 59.18 59.81 59.82 58.86 58.15 57.12 56.59 55.24 54.32 53.48 53.06 52.46 52.18 50.07 49.73 49.89 49.76 49.49 49.60 49.90 50.07 50.77 52.00 50.59 47.16 42.09 54.28 49.89 52.04 50.01 47.03 47.59 47.17 46.39 49.03 44.39 39.80 39.47 34.57 31.81 33.61 28.71 32.42 35.83 40.43 39.92
58.34 58.86 58.98 59.34 59.34 57.94 57.29 55.88 54.47 53.49 52.87 52.10 51.96 49.96 49.17 49.14 49.00 49.54 49.80 49.18 49.41 49.36 50.41 52.53 50.55 44.64 45.73 45.61 49.81 50.34 48.87 48.56 45.77 46.26 43.46 41.53 37.87 34.07 32.59 30.64 25.19 28.58 29.95 29.80 30.27 35.17 37.86
58.79 58.53 58.90 59.34 59.17 58.03 56.69 55.18 53.68 52.90 51.95 51.52 50.24 49.05 49.33 48.87 48.37 48.72 47.69 44.03 43.32 42.76 45.69 43.17 42.75 43.40 46.26 47.42 48.16 46.23 48.32 47.24 46.09 43.42 35.54 39.13 32.92 29.19 31.48 33.72 35.11 34.79 32.89 31.61 34.89 38.02 35.77
58.23 58.38 58.89 59.46 59.01 57.41 56.12 54.53 52.53 52.03 51.46 49.95 49.43 49.60 48.97 48.14 47.85 48.16 45.28 39.97 42.39 41.49 35.16 45.39 46.90 46.84 48.36 49.06 43.08 45.92 46.78 40.72 39.93 36.37 38.28 35.32 31.28 37.25 38.34 37.45 36.03 34.89 32.33 31.86 35.95 38.15 36.80
57.65 58.14 58.77 59.04 58.33 56.06 54.91 52.83 52.36 50.95 49.99 49.58 49.98 48.61 47.28 47.12 47.34 43.97 40.91 41.82 46.82 44.89 34.19 38.90 42.53 45.08 47.05 47.81 42.84 44.19 44.71 41.17 39.39 37.35 36.85 33.15 37.14 41.39 38.97 37.33 35.60 35.02 32.76 32.58 34.02 37.16 36.49
54.80 57.27 57.96 57.63 55.58 54.43 53.33 52.50 50.67 49.75 49.67 49.41 47.78 46.60 46.18 46.82 41.95 41.37 40.38 44.56 45.78 45.12 28.44 35.80 39.93 43.27 47.02 47.08 42.36 47.94 44.98 41.58 38.49 36.00 37.41 36.08 40.79 39.34 38.13 36.76 37.43 32.40 38.99 37.74 35.72 32.18 27.72
50.81 51.77 53.28 53.86 53.32 52.39 50.96 50.35 50.20 50.08 48.43 47.03 46.35 45.53 45.73 46.03 39.92 39.41 43.02 43.89 44.76 43.72 22.15 39.76 40.12 49.10 47.82 43.59 44.45 44.15 47.55 43.32 37.25 37.51 36.94 34.96 36.67 35.96 35.01 35.95 38.99 35.47 39.63 37.11 35.33 31.49 30.02
50.15 50.12 50.31 50.34 50.21 50.05 50.06 49.46 48.21 47.19 46.64 46.13 45.35 45.13 45.60 43.17 41.53 43.04 44.00 43.96 43.59 32.76 22.99 36.33 42.64 41.65 41.40 43.43 42.51 44.71 44.20 45.28 43.56 38.53 37.54 36.52 39.70 37.77 37.20 39.61 39.41 40.03 37.37 36.10 34.60 31.38 25.33
50.31 50.41 50.14 49.70 49.27 48.78 48.24 47.53 46.95 46.05 44.95 44.14 44.13 44.11 43.08 43.54 39.67 44.50 44.13 40.87 32.31 26.50 39.31 35.49 37.69 40.93 39.98 38.15 39.32 41.82 39.86 37.29 34.76 30.34 30.39 35.24 36.56 38.86 40.27 35.27 37.36 36.51 31.85 24.35 22.64 21.69 22.38
49.30 48.98 48.66 48.50 48.33 47.83 46.71 46.22 45.62 44.63 43.91 43.88 43.78 44.00 42.90 43.19 43.56 44.58 42.24 34.83 27.31 32.32 32.72 36.58 36.20 36.49 33.88 36.02 35.29 35.11 34.45 31.70 37.58 35.20 30.21 27.03 25.76 34.31 39.79 35.82 33.73 33.27 32.41 25.25 20.60 20.85 24.48
47.91 47.85 47.26 46.99 46.50 45.97 46.13 45.76 44.36 43.54 43.22 42.94 43.34 40.49 39.64 44.04 43.94 43.23 37.28 27.96 27.16 31.60 33.65 32.59 34.23 31.09 31.86 34.35 33.50 34.59 32.65 31.95 33.53 33.44 29.30 26.70 28.77 37.46 40.07 39.34 37.26 34.21 29.78 35.83 28.52 29.89 25.33
46.98 46.55 46.11 45.96 45.59 45.30 45.64 44.47 43.60 42.62 43.30 43.60 38.54 39.04 40.48 44.60 43.85 41.14 33.32 30.61 30.27 34.47 35.04 34.56 29.62 31.55 27.67 29.45 29.24 29.81 30.81 33.97 32.83 34.19 33.80 31.30 23.84 35.85 36.43 39.09 39.32 37.79 38.78 26.66 26.53 21.33 21.03
46.50 46.34 45.92 45.99 45.80 45.83 45.63 44.60 43.74 43.20 43.35 43.94 37.41 34.87 41.18 43.64 43.07 37.11 27.08 29.78 32.55 36.07 36.25 32.50 30.20 28.98 29.76 28.66 29.61 28.47 29.96 33.59 34.73 33.69 34.22 32.44 29.74 28.34 32.99 33.07 29.35 30.28 30.01 32.58 31.97 29.71 23.40
46.17 45.73 46.27 46.43 45.79 45.47 44.89 44.64 44.50 43.55 43.43 41.24 36.46 30.48 40.75 42.55 33.75 34.78 28.27 33.64 36.76 34.90 37.40 35.05 34.38 32.92 30.60 31.31 29.30 29.41 29.03 32.05 36.74 35.33 30.08 33.37 29.83 24.90 26.54 34.05 35.84 35.23 33.65 35.50 28.99 26.49 28.75
44.96 44.91 44.49 44.56 44.54 44.67 44.43 44.19 44.20 43.70 43.20 37.27 33.72 32.57 39.36 41.40 26.35 27.03 32.65 33.30 34.76 34.33 34.10 33.97 32.78 34.32 33.98 30.28 26.29 30.94 30.82 35.74 36.66 34.13 30.47 31.32 25.99 19.79 21.63 27.59 33.39 30.80 32.72 33.09 32.90 32.81 27.09
44.66 44.60 44.86 44.99 45.07 44.75 44.24 43.48 43.30 43.38 43.58 38.27 34.84 26.28 31.07 34.05 34.92 31.19 29.02 30.63 30.26 35.69 33.85 35.19 34.16 34.64 31.38 29.59 31.27 27.78 29.26 34.31 35.85 35.40 39.39 35.12 26.90 24.31 18.27 22.63 28.07 24.96 28.57 31.08 30.82 26.84 28.21
44.70 44.89 44.95 45.07 44.66 44.05 43.43 43.12 43.10 43.20 43.56 38.12 33.46 29.86 33.80 26.47 29.25 30.79 32.22 32.78 30.21 29.05 34.52 35.34 30.82 31.09 29.44 25.44 26.09 25.56 29.18 30.72 33.32 35.88 33.11 30.60 23.53 26.20 27.32 28.39 28.63 27.77 27.46 28.80 28.11 29.21 27.33
44.07 44.12 44.82 44.72 44.14 43.57 43.25 43.00 42.95 43.58 44.26 37.27 31.13 31.56 34.08 30.76 33.29 30.64 30.38 29.32 30.39 31.09 32.17 30.26 28.44 31.54 29.56 24.91 26.61 24.55 27.43 27.69 27.20 31.35 29.04 29.22 22.70 25.21 21.91 26.89 27.37 25.18 28.47 29.36 30.34 31.08 32.47
44.34 44.50 44.21 44.84 44.24 43.36 42.87 43.15 43.57 44.31 42.91 36.00 35.67 36.39 33.73 30.49 28.97 27.78 27.30 30.71 30.62 32.16 33.07 32.72 31.08 28.66 27.41 29.00 30.88 30.93 31.01 30.79 30.04 27.77 25.79 25.15 21.11 21.10 17.80 25.84 25.84 21.60 27.35 29.37 30.89 35.06 35.52
44.82 44.34 44.12 44.11 43.62 43.18 43.17 43.04 43.52 44.21 41.94 37.12 36.48 35.47 30.42 24.53 27.68 28.52 32.06 32.29 30.98 31.10 28.19 31.37 31.53 28.30 33.02 35.11 33.68 31.96 30.96 30.96 30.45 29.64 30.35 23.33 23.01 23.26 20.03 23.49 14.34 28.17 35.22 35.58 34.21 34.72 36.37
45.48 44.70 44.41 43.75 42.90 43.30 43.15 43.25 43.84 44.03 44.69 37.88 38.01 34.96 30.65 24.49 30.44 30.99 31.27 30.47 30.54 31.32 29.23 30.36 33.90 34.86 34.30 31.61 26.97 24.69 24.50 26.59 28.57 30.38 29.95 30.07 26.80 22.83 18.34 19.77 24.94 28.71 33.57 30.94 28.55 30.02 33.11
45.61 45.17 44.41 43.91 43.25 43.77 43.44 43.49 43.55 44.11 44.70 38.36 37.04 38.12 34.54 26.95 26.33 33.38 29.32 30.31 25.31 25.05 26.83 31.71 35.87 35.76 33.83 25.88 22.40 20.33 17.40 22.79 23.83 26.61 32.87 31.13 29.84 24.06 23.73 19.07 13.85 26.55 30.85 34.59 34.24 26.38 33.04
45.33 45.19 44.50 44.18 43.84 44.11 43.70 43.40 43.89 44.13 44.14 39.04 37.06 38.29 34.94 25.88 32.01 32.41 27.80 27.03 30.16 26.20 24.42 28.35 30.19 30.22 31.33 18.42 14.39 18.47 19.83 27.18 22.94 22.13 25.72 24.80 26.50 22.88 21.92 20.86 24.82 29.37 32.27 34.13 25.89 24.99 30.03
44.83 45.10 44.88 44.47 44.43 44.66 43.99 43.55 43.55 43.62 44.01 40.22 36.99 37.68 34.63 27.93 31.46 34.90 35.55 29.72 29.03 27.93 21.92 26.74 25.15 25.90 24.93 20.71 20.92 15.48 14.48 22.70 25.20 28.15 27.77 26.47 25.19 24.32 25.80 21.97 19.37 30.46 30.84 26.13 31.11 31.87 29.64
44.69 44.73 44.76 44.45 44.60 44.68 44.09 43.63 43.57 43.57 43.77 42.41 34.17 38.76 38.01 31.17 31.29 35.21 35.72 36.55 35.20 34.22 29.23 28.23 26.73 27.60 26.11 20.59 21.40 21.55 21.02 24.21 26.02 24.00 32.10 24.21 27.03 25.31 25.71 23.58 31.31 31.90 31.16 33.38 33.44 31.21 30.01
MSLP
1012.77 1012.68 1012.66 1012.89 1013.18 1013.62 1013.92 1014.35 1014.89 1015.58 1016.08 1016.35 1016.75 1016.76 1017.19 1017.50 1017.28 1017.33 1017.60 1017.61 1017.38 1017.06 1017.12 1017.02 1017.11 1017.07 1016.70 1016.01 1012.69 1010.09 1010.11 1010.28 1010.56 1010.68 1010.64 1010.57 1010.53 1010.55 1010.59 1010.27 1010.12 1009.87 1009.55 1009.28 1008.75 1008.07 1007.54
1011.77 1011.68 1011.65 1011.85 1012.02 1012.32 1012.76 1013.22 1013.80 1014.45 1015.17 1015.92 1016.31 1016.53 1016.78 1017.08 1017.29 1017.15 1017.23 1017.28 1017.18 1016.88 1016.84 1016.78 1016.98 1017.08 1016.90 1014.72 1010.13 1009.48 1009.86 1010.44 1010.22 1010.38 1010.17 1010.22 1009.94 1009.91 1009.95 1009.97 1010.11 1009.11 1008.88 1008.73 1008.45 1007.80 1007.46
1010.48 1010.38 1010.27 1010.76 1010.92 1011.39 1011.60 1012.20 1012.92 1013.49 1014.54 1015.20 1015.80 1016.14 1016.50 1016.75 1016.90 1016.90 1016.85 1016.72 1016.80 1016.55 1016.59 1016.36 1016.55 1016.82 1015.97 1011.83 1009.68 1009.64 1009.93 1009.82 1009.58 1009.72 1009.78 1009.53 1009.70 1010.04 1009.79 1009.77 1009.43 1009.32 1009.15 1008.75 1008.20 1007.63 1007.21
1008.93 1008.80 1008.86 1009.18 1009.59 1010.16 1010.62 1011.10 1011.94 1012.73 1013.88 1014.73 1015.44 1015.69 1016.30 1016.59 1016.49 1016.44 1016.34 1016.30 1016.30 1016.06 1016.12 1015.86 1016.01 1016.26 1014.16 1010.02 1009.66 1009.68 1009.39 1009.21 1008.94 1008.97 1009.16 1008.94 1009.19 1009.56 1009.75 1009.64 1009.58 1009.71 1009.18 1009.15 1008.19 1007.85 1007.14
1007.11 1007.05 1007.32 1007.71 1008.32 1009.10 1009.92 1010.38 1011.34 1012.11 1013.39 1014.15 1014.80 1015.14 1015.84 1016.24 1016.29 1016.19 1015.90 1015.69 1015.73 1015.56 1015.62 1015.56 1015.72 1015.57 1012.53 1009.30 1009.04 1007.81 1008.26 1008.36 1008.34 1008.57 1008.68 1008.65 1008.97 1009.47 1009.70 1010.22 1010.88 1010.54 1010.08 1009.31 1008.86 1008.05 1007.44
1005.27 1005.49 1005.81 1006.46 1007.01 1007.88 1008.82 1009.72 1010.81 1011.92 1012.93 1013.77 1014.37 1015.04 1015.41 1016.01 1015.75 1015.92 1015.80 1015.05 1014.72 1015.24 1015.11 1015.04 1014.94 1015.22 1011.41 1008.80 1007.74 1007.31 1007.14 1007.79 1008.29 1008.45 1008.84 1009.00 1009.58 1010.00 1010.42 1011.00 1011.23 1010.88 1010.34 1009.60 1009.19 1008.30 1007.50
1003.79 1004.05 1004.76 1005.08 1006.08 1006.78 1008.03 1009.22 1010.34 1011.32 1012.47 1013.48 1014.23 1014.74 1015.17 1015.59 1015.40 1015.62 1015.89 1014.84 1014.70 1015.28 1014.36 1012.18 1011.62 1010.75 1008.98 1008.07 1007.40 1007.23 1006.88 1007.15 1007.73 1008.39 1009.16 1009.19 1010.08 1010.14 1010.08 1010.45 1010.36 1010.44 1010.20 1009.84 1008.35 1007.63 1007.57
1002.72 1003.16 1003.62 1004.31 1005.01 1005.91 1007.03 1008.25 1009.76 1011.00 1012.30 1013.16 1013.97 1014.62 1014.97 1015.17 1015.19 1015.38 1015.51 1014.94 1013.03 1013.38 1012.77 1011.00 1010.15 1010.24 1008.49 1008.48 1007.78 1006.86 1006.90 1007.43 1007.70 1008.44 1008.99 1009.81 1009.83 1009.20 1009.47 1009.91 1009.94 1009.81 1009.94 1009.22 1007.78 1007.38 1007.19
1002.30 1002.70 1002.67 1003.30 1004.42 1005.47 1007.05 1008.12 1009.31 1010.42 1011.90 1012.97 1013.62 1014.32 1014.71 1014.98 1014.78 1014.95 1014.61 1013.54 1012.55 1012.84 1012.47 1009.28 1008.39 1008.38 1008.06 1007.59 1007.41 1006.46 1006.69 1007.12 1007.62 1008.24 1008.70 1009.20 1008.60 1008.38 1009.00 1008.85 1008.91 1008.88 1008.90 1008.53 1007.83 1007.22 1006.67
1002.80 1002.31 1002.39 1003.01 1004.18 1005.73 1007.56 1008.21 1009.27 1010.56 1011.65 1012.58 1013.50 1014.06 1014.32 1014.63 1015.00 1014.13 1013.63 1012.81 1012.69 1012.91 1012.18 1008.33 1007.08 1006.08 1006.36 1006.56 1006.63 1006.00 1006.09 1006.78 1007.38 1007.88 1008.58 1008.60 1007.83 1007.85 1007.73 1007.76 1007.62 1007.72 1007.71 1007.62 1007.87 1008.05 1007.27
1005.37 1004.94 1004.74 1004.87 1005.70 1006.04 1008.04 1009.61 1009.95 1011.05 1011.64 1012.41 1013.20 1013.77 1014.05 1014.11 1014.28 1013.71 1013.04 1012.56 1012.69 1012.99 1010.74 1006.52 1005.60 1004.73 1005.29 1006.03 1005.71 1005.58 1005.63 1006.23 1006.82 1007.37 1007.96 1007.57 1007.16 1007.03 1006.92 1006.69 1006.63 1006.97 1007.17 1007.44 1007.69 1008.01 1007.82
1005.98 1006.63 1007.76 1008.38 1007.53 1008.49 1009.10 1009.83 1010.34 1011.55 1012.27 1012.71 1013.18 1013.15 1013.60 1014.10 1013.91 1013.14 1012.82 1012.84 1012.81 1012.87 1008.49 1005.71 1004.91 1004.94 1005.36 1005.49 1005.48 1005.70 1006.02 1006.36 1006.57 1007.24 1007.37 1007.15 1006.64 1006.59 1006.12 1006.04 1006.23 1006.44 1006.88 1007.58 1007.87 1008.35 1008.18
1007.35 1007.58 1007.90 1008.46 1009.15 1009.69 1010.58 1010.92 1011.33 1011.89 1012.74 1013.02 1013.07 1013.35 1013.64 1013.82 1013.18 1012.82 1012.72 1013.15 1012.49 1010.54 1005.71 1005.40 1004.89 1005.06 1005.40 1005.59 1005.77 1005.97 1006.59 1006.96 1007.35 1007.75 1007.62 1006.95 1006.44 1006.05 1006.01 1006.10 1006.05 1006.66 1007.60 1008.62 1008.96 1009.01 1007.99
1008.46 1008.58 1009.10 1009.38 1010.01 1010.49 1011.08 1011.51 1012.05 1012.38 1012.85 1012.98 1012.99 1012.95 1012.92 1012.99 1012.90 1012.90 1013.07 1013.24 1011.22 1008.11 1006.82 1005.99 1005.13 1005.20 1005.72 1005.93 1006.14 1006.55 1007.08 1007.81 1008.51 1008.48 1008.46 1008.24 1007.56 1006.70 1006.43 1006.40 1005.87 1006.21 1007.52 1008.70 1008.85 1008.75 1007.82
1009.38 1009.50 1009.93 1010.45 1010.74 1011.04 1011.37 1011.66 1012.22 1012.57 1012.74 1012.99 1012.87 1013.06 1013.05 1012.42 1012.56 1013.11 1013.17 1012.28 1009.75 1008.19 1007.53 1006.84 1006.14 1006.12 1006.67 1006.85 1007.08 1007.28 1008.35 1008.94 1009.44 1009.40 1009.76 1009.35 1008.56 1007.56 1007.17 1006.81 1006.36 1006.61 1007.27 1007.56 1008.61 1008.78 1008.49
1009.90 1010.18 1010.41 1010.79 1011.13 1011.41 1011.60 1011.86 1012.26 1012.47 1012.62 1012.55 1012.96 1013.03 1012.51 1011.90 1012.46 1013.25 1012.78 1010.81 1009.42 1008.52 1008.05 1007.43 1007.12 1007.19 1007.82 1008.30 1008.44 1008.65 1009.18 1010.04 1010.15 1010.43 1010.26 1010.64 1010.04 1009.05 1008.13 1007.23 1006.52 1007.39 1007.41 1008.31 1009.34 1009.29 1008.34
1010.17 1010.32 1010.63 1010.93 1011.22 1011.57 1011.73 1011.84 1011.99 1012.34 1012.60 1012.74 1012.79 1012.95 1011.93 1012.02 1012.70 1013.14 1012.08 1010.27 1009.38 1009.03 1008.53 1008.55 1008.33 1008.61 1009.07 1009.27 1009.56 1010.01 1010.46 1011.05 1010.89 1011.10 1011.07 1011.29 1011.28 1010.36 1009.70 1009.14 1009.42 1009.06 1009.13 1009.71 1009.54 1009.21 1008.63
1010.23 1010.46 1010.63 1010.96 1011.22 1011.61 1011.78 1011.87 1012.08 1012.37 1012.51 1012.81 1012.69 1012.60 1011.76 1012.11 1012.72 1012.20 1010.97 1009.67 1009.34 1009.25 1008.90 1009.01 1009.27 1009.58 1009.95 1010.16 1010.53 1010.90 1011.19 1011.41 1011.34 1011.44 1012.06 1012.38 1012.09 1011.53 1010.93 1010.54 1010.02 1010.19 1010.63 1010.69 1010.79 1009.94 1009.16
1010.28 1010.59 1010.94 1011.27 1011.49 1011.81 1011.90 1012.03 1012.26 1012.30 1012.38 1012.47 1012.45 1012.30 1011.87 1011.95 1012.07 1011.57 1010.68 1010.31 1010.07 1009.68 1009.75 1009.94 1010.26 1010.55 1010.65 1011.06 1011.53 1011.62 1011.79 1011.94 1011.84 1012.06 1012.57 1012.80 1013.17 1012.98 1011.61 1010.78 1010.88 1010.84 1011.33 1011.67 1011.61 1010.69 1009.49
1010.36 1010.58 1010.91 1011.24 1011.62 1011.78 1012.00 1012.17 1012.11 1012.42 1012.27 1012.42 1012.64 1012.52 1012.33 1012.04 1011.29 1011.13 1011.03 1010.73 1010.75 1010.67 1010.72 1010.87 1011.21 1011.24 1011.61 1012.02 1012.21 1012.48 1012.55 1012.50 1012.79 1012.94 1012.94 1013.26 1013.86 1014.22 1014.16 1013.33 1012.78 1011.95 1011.57 1011.58 1011.69 1010.86 1009.96
1010.37 1010.70 1011.04 1011.34 1011.71 1011.86 1012.07 1012.29 1012.43 1012.27 1012.15 1012.47 1012.48 1012.15 1011.57 1011.79 1011.63 1011.19 1011.04 1010.96 1011.03 1011.24 1011.44 1011.71 1011.98 1012.19 1012.41 1012.97 1013.08 1013.32 1013.54 1013.59 1013.54 1013.55 1013.71 1014.09 1014.66 1014.84 1014.57 1013.91 1013.09 1012.21 1011.55 1010.98 1010.70 1010.44 1010.16
1010.48 1010.83 1011.15 1011.52 1011.86 1012.16 1012.50 1012.45 1012.33 1012.09 1011.87 1012.18 1012.24 1011.97 1011.73 1011.71 1011.62 1011.52 1011.43 1011.55 1011.33 1011.63 1012.01 1012.41 1012.47 1012.68 1013.10 1013.72 1014.13 1014.46 1014.51 1014.43 1014.37 1014.06 1014.41 1014.89 1015.17 1015.24 1014.39 1013.83 1012.87 1011.80 1010.80 1010.12 1009.67 1009.36 1009.14
1010.59 1011.05 1011.40 1011.69 1012.06 1012.28 1012.39 1012.29 1012.18 1011.86 1011.58 1012.13 1012.17 1011.79 1011.69 1012.14 1012.12 1011.98 1011.87 1011.80 1012.04 1012.17 1012.61 1012.92 1012.96 1013.16 1013.52 1014.08 1014.15 1014.12 1014.11 1014.08 1014.09 1014.25 1014.65 1015.28 1015.59 1015.67 1014.35 1013.66 1012.85 1011.32 1009.25 1008.88 1008.85 1008.93 1009.21
1010.57 1011.10 1011.44 1011.73 1012.04 1012.25 1012.24 1012.27 1012.21 1011.97 1011.98 1012.32 1012.24 1012.15 1012.33 1012.99 1012.58 1012.34 1012.09 1012.22 1012.54 1012.79 1013.11 1013.30 1013.28 1013.47 1013.99 1013.97 1013.77 1013.52 1013.43 1013.27 1013.23 1013.09 1013.58 1014.37 1015.16 1015.47 1014.49 1014.00 1012.54 1010.40 1009.88 1009.15 1009.95 1010.11 1010.03
1010.52 1011.03 1011.40 1011.69 1011.98 1012.19 1012.38 1012.43 1012.33 1012.20 1011.93 1012.08 1012.20 1012.48 1012.89 1013.52 1013.14 1012.65 1012.62 1012.90 1013.10 1013.43 1013.62 1013.64 1013.72 1013.84 1013.93 1014.20 1014.76 1014.78 1014.02 1013.39 1012.62 1012.23 1012.35 1013.07 1014.26 1015.12 1014.86 1013.96 1012.25 1010.63 1011.14 1011.67 1011.82 1011.91 1011.86
1010.49 1010.95 1011.36 1011.72 1012.06 1012.31 1012.49 1012.57 1012.58 1012.33 1012.08 1012.19 1012.57 1012.64 1012.99 1013.63 1014.05 1013.25 1013.16 1013.36 1014.06 1014.30 1014.29 1014.47 1014.13 1013.94 1014.28 1015.59 1016.48 1016.62 1015.80 1014.71 1013.35 1012.43 1012.07 1012.09 1013.15 1014.43 1014.40 1014.03 1013.20 1012.47 1012.30 1011.96 1012.09 1013.01 1013.63
1010.45 1010.92 1011.37 1011.74 1012.12 1012.42 1012.71 1012.85 1012.70 1012.56 1012.42 1012.61 1012.99 1012.76 1013.14 1014.03 1014.16 1013.51 1013.68 1013.96 1014.28 1014.75 1015.25 1015.28 1015.22 1015.21 1015.54 1017.08 1017.84 1017.71 1016.82 1015.46 1014.40 1013.71 1012.69 1012.94 1013.71 1013.98 1014.30 1014.25 1013.59 1013.70 1012.94 1011.94 1012.30 1014.99 1014.77
1010.56 1010.98 1011.41 1011.82 1012.24 1012.54 1012.90 1012.96 1012.95 1012.90 1012.95 1013.01 1013.67 1013.15 1013.25 1014.55 1014.71 1014.16 1013.89 1014.12 1014.50 1015.06 1015.92 1016.03 1016.20 1016.53 1017.19 1018.11 1018.63 1018.32 1017.58 1016.35 1015.42 1014.49 1013.62 1013.51 1013.54 1013.69 1013.96 1014.38 1014.86 1014.67 1013.64 1013.83 1015.12 1015.25 1015.69
1010.62 1011.10 1011.56 1012.06 1012.46 1012.76 1013.03 1013.21 1013.35 1013.42 1013.36 1013.31 1014.09 1013.56 1013.45 1014.37 1014.99 1014.42 1014.08 1014.04 1014.20 1014.65 1015.43 1016.06 1016.70 1017.14 1017.85 1018.69 1018.96 1018.76 1018.09 1017.05 1015.96 1014.77 1014.18 1014.17 1014.60 1014.32 1015.03 1015.93 1016.30 1016.50 1016.49 1016.38 1016.30 1016.25 1016.90
Wind_Speed
28 29 29 29 29 27 27 26 23 21 19 17 15 12 12 12 10 10 10 11 14 14 15 15 15 12 6 4 14 5 7 7 6 6 6 5 4 5 3 4 3 8 14 14 14 14 17
29 30 31 30 30 30 29 28 25 23 20 17 14 12 12 10 10 9 10 13 14 15 15 15 13 9 3 9 7 8 9 6 6 4 4 5 5 4 6 5 6 8 9 7 7 8 6
31 30 29 30 31 30 30 29 26 23 20 18 14 11 10 9 8 9 11 13 15 16 17 14 11 7 7 20 3 4 3 5 5 6 4 4 4 4 4 5 4 4 6 7 5 4 5
33 33 32 33 30 31 31 29 26 23 20 18 15 12 8 7 7 9 12 14 16 17 17 13 9 6 11 7 8 11 7 6 8 7 7 7 5 4 4 3 8 6 3 3 2 5 8
33 34 32 30 31 30 28 25 24 24 20 19 16 13 7 5 7 10 12 15 18 18 13 9 4 5 12 10 5 10 9 6 6 6 6 5 1 3 2 3 5 4 6 10 10 5 8
30 33 32 31 28 29 27 25 24 22 20 17 13 9 5 6 7 12 14 16 15 6 6 7 5 4 9 4 3 4 7 7 6 5 3 3 3 2 3 4 8 6 4 7 7 6 5
23 28 29 27 26 25 27 28 25 22 20 17 13 10 7 8 8 10 7 4 1 3 8 13 12 7 3 3 4 5 5 4 1 3 5 3 3 8 11 9 6 8 9 14 16 11 5
19 22 24 24 27 28 31 30 26 23 20 16 13 11 8 8 9 8 1 4 2 2 7 20 19 20 19 8 6 6 7 6 5 5 3 1 10 14 11 10 10 10 14 17 16 14 6
15 18 22 23 23 28 28 27 25 23 20 16 13 8 5 6 7 5 6 5 4 3 3 7 10 13 11 10 9 7 10 7 4 8 7 9 12 11 13 13 11 10 10 7 11 8 7
25 15 16 19 29 28 26 27 25 21 18 15 11 7 4 4 4 3 5 3 4 5 3 6 9 8 10 7 6 7 7 7 5 7 7 8 14 15 13 9 14 12 8 7 7 5 11
29 32 25 22 22 25 24 18 19 19 17 13 8 3 1 3 3 2 1 3 3 4 3 6 8 7 10 7 2 4 6 3 7 8 4 7 4 4 5 4 4 8 6 5 5 5 6
25 24 22 18 24 22 22 22 19 15 12 9 5 4 6 4 3 5 4 3 4 2 8 8 6 11 8 7 3 4 3 1 4 5 5 8 4 4 7 6 5 1 2 4 3 0 9
19 22 24 24 22 22 19 18 16 14 9 6 5 2 3 3 2 2 3 3 4 5 10 7 8 11 11 6 8 6 6 4 2 2 3 5 6 4 5 8 3 4 5 4 5 0 8
21 22 21 21 19 19 17 15 13 10 7 5 4 5 2 4 4 3 2 2 4 1 4 4 5 6 5 2 1 2 4 4 7 3 0 3 6 5 9 5 11 9 9 6 7 4 10
18 20 19 17 16 16 13 14 11 9 8 4 5 1 1 3 5 2 3 3 1 3 3 4 2 4 3 3 4 3 7 4 4 10 3 5 4 11 6 8 2 4 5 10 5 7 6
14 14 14 13 12 12 13 12 10 7 4 5 3 2 3 5 5 2 2 5 3 5 4 4 3 6 4 4 5 5 5 4 4 8 3 4 6 3 8 8 7 6 1 1 2 3 5
13 13 12 13 12 12 13 11 10 6 2 1 2 2 3 5 3 1 4 2 5 5 2 3 4 5 5 3 5 3 4 6 3 3 6 4 1 3 6 5 7 10 7 5 4 5 4
13 12 9 13 13 11 10 9 7 5 3 2 2 2 2 4 2 3 2 3 6 4 7 6 4 6 5 4 4 3 4 5 4 1 3 3 3 5 5 11 13 9 6 3 4 5 5
12 12 11 9 9 10 8 8 7 3 2 2 2 2 1 3 3 1 2 5 8 4 7 4 4 6 5 4 4 3 4 4 6 4 2 1 3 5 11 4 6 5 7 9 9 8 5
11 10 13 12 11 10 8 5 4 2 2 3 2 3 2 1 2 5 5 3 5 6 5 4 5 6 5 4 5 3 5 6 9 5 3 2 3 4 4 9 9 14 14 10 4 5 8
11 11 10 12 11 8 5 4 2 2 4 3 1 2 3 2 3 5 4 4 7 3 3 3 4 4 4 3 5 4 5 5 6 3 4 3 2 1 6 11 14 16 15 15 13 13 9
12 12 10 10 10 8 6 3 3 5 5 1 3 2 3 2 2 6 4 2 6 8 3 2 4 2 5 3 2 2 0 1 4 1 3 4 3 3 14 12 14 16 17 18 16 16 15
15 14 11 11 9 7 4 5 5 10 4 2 2 2 3 3 3 4 2 4 6 5 5 7 4 3 4 1 4 7 9 7 8 7 5 5 3 2 9 6 13 12 9 16 13 6 10
16 14 12 11 9 6 5 5 6 9 5 2 2 2 4 1 3 3 10 11 9 5 4 1 3 4 2 3 4 4 7 11 12 15 12 6 6 4 5 7 5 1 17 11 12 8 4
15 15 13 10 7 7 5 4 6 7 10 3 2 3 3 3 2 8 8 6 6 4 3 3 4 2 3 5 5 6 5 4 5 7 10 15 7 3 3 3 11 8 8 5 2 6 7
16 15 12 10 9 8 6 5 5 8 13 3 2 1 3 6 5 4 6 4 4 1 4 3 4 5 6 4 3 2 2 4 4 9 10 5 10 6 2 3 4 3 12 11 3 4 7
15 14 12 11 9 9 7 5 7 9 12 4 2 3 4 5 4 4 4 4 3 3 3 3 4 6 5 2 3 1 3 4 4 6 3 3 4 7 5 5 4 12 19 12 3 3 7
15 12 11 11 9 10 8 7 8 10 11 4 2 4 4 4 3 5 5 5 4 4 4 4 5 6 4 5 2 3 1 3 3 3 8 3 3 4 4 1 3 19 7 7 4 7 9
14 12 12 12 11 11 9 8 8 8 7 5 3 4 2 5 4 2 1 2 4 6 5 3 5 2 3 4 2 2 3 3 4 3 6 5 6 3 5 3 4 5 7 8 8 9 9
Wind_Direction
241 233 228 226 222 220 216 213 208 211 214 215 218 214 231 248 259 277 290 296 298 304 305 306 307 313 344 246 249 245 177 165 159 170 200 188 189 173 213 231 240 225 253 258 258 257 264
252 240 232 226 222 220 217 212 207 202 202 208 209 211 225 242 268 281 290 295 298 300 298 297 297 297 244 253 244 228 173 170 197 198 199 186 209 206 273 245 229 269 274 281 270 250 243
257 244 232 229 224 222 217 211 205 195 195 199 200 211 220 238 260 282 291 293 294 297 294 291 285 244 245 245 252 75 179 229 204 193 244 220 256 198 330 301 233 248 291 301 237 265 277
253 247 241 233 222 220 216 208 196 186 187 191 201 209 215 241 261 281 290 294 293 293 291 286 264 211 255 254 232 251 213 243 228 213 198 250 230 224 191 295 345 346 317 302 269 307 283
249 241 238 227 223 219 216 197 186 177 181 189 196 190 205 247 286 289 292 297 292 287 273 264 182 216 260 296 213 234 191 221 202 233 251 254 57 216 330 74 8 321 266 285 298 241 265
251 240 234 236 224 212 201 182 172 173 179 181 180 165 191 263 292 300 305 298 281 294 250 195 250 216 255 255 208 218 179 198 226 228 170 167 55 247 19 103 227 227 239 260 238 265 264
250 241 233 227 218 196 181 171 167 167 170 171 161 176 202 246 267 288 322 340 68 218 241 195 188 225 249 278 247 232 175 153 76 103 163 187 140 222 226 210 220 237 273 273 275 273 252
241 233 229 224 208 185 172 168 163 162 160 159 174 190 212 243 269 288 297 240 239 201 285 231 243 239 277 293 297 255 154 156 145 210 163 38 223 229 229 232 225 235 253 268 281 270 254
246 226 217 213 195 171 166 159 152 148 156 168 170 182 224 262 296 291 201 225 104 66 270 272 208 225 229 209 227 259 144 173 158 195 214 209 238 229 221 244 249 242 232 235 273 291 268
24 234 224 174 152 150 159 142 142 152 157 147 156 176 198 317 313 245 205 163 73 95 293 251 198 222 176 155 239 208 180 141 206 209 218 235 238 238 244 231 233 251 252 287 279 310 292
46 46 60 102 110 116 114 126 137 130 133 139 140 165 312 215 286 241 38 30 89 64 237 157 151 159 151 172 124 193 177 116 184 212 168 241 291 282 276 229 212 243 211 256 288 270 321
95 85 72 73 96 99 107 108 116 117 116 115 107 57 340 279 172 250 353 33 76 185 238 174 135 171 144 202 224 129 128 28 190 214 201 237 222 215 240 271 237 295 24 339 279 192 277
98 102 104 108 96 100 106 110 107 107 107 99 59 352 259 281 188 329 52 65 140 223 151 141 169 169 184 203 202 167 178 191 252 214 279 304 270 261 238 266 251 180 74 328 322 353 236
95 96 99 106 111 112 111 110 116 118 103 71 6 323 280 232 283 4 77 135 222 182 15 13 82 99 148 101 126 190 89 103 20 38 346 279 329 19 353 252 211 185 159 167 241 239 286
99 101 103 104 107 110 112 121 117 113 91 37 340 11 287 237 217 122 101 196 300 29 355 348 65 112 119 98 67 72 59 56 53 26 68 0 262 324 43 339 209 213 152 214 254 269 286
120 122 122 126 131 139 142 136 132 101 87 39 62 318 234 170 139 95 129 255 113 41 346 331 72 26 96 32 67 53 39 24 75 38 15 351 296 339 311 325 23 354 52 306 355 276 249
136 136 144 155 158 160 155 152 128 117 140 156 79 71 227 154 101 125 199 215 93 48 67 31 52 74 77 92 77 61 54 101 73 20 63 2 166 305 10 14 359 345 338 334 280 171 241
135 131 117 135 138 139 143 140 130 139 222 190 149 98 198 129 134 226 226 19 106 97 64 64 57 61 65 63 72 94 84 49 11 90 56 345 272 287 270 287 277 276 346 33 277 328 298
147 138 131 146 147 144 142 134 134 123 80 152 120 162 266 115 166 191 50 79 57 42 36 46 71 48 45 70 82 62 61 65 46 64 139 348 349 334 325 340 18 61 359 342 304 249 225
159 166 169 159 145 137 130 125 103 118 47 99 139 89 327 166 238 137 114 80 103 32 43 33 78 56 60 54 51 1 33 15 22 4 155 106 193 192 241 278 290 298 303 300 298 286 320
155 149 153 152 142 136 135 129 97 28 340 111 110 234 191 217 339 84 100 124 120 98 60 36 30 78 78 44 354 31 23 350 358 39 40 87 241 179 281 280 281 275 281 276 259 263 257
157 158 150 140 141 144 149 119 52 2 339 121 108 107 348 87 87 79 34 63 155 106 102 60 108 59 60 86 89 271 355 227 231 318 87 359 213 348 295 289 272 270 280 257 259 262 264
154 153 150 156 148 139 121 85 41 16 42 80 299 302 92 349 82 86 192 112 104 96 61 63 59 91 46 148 226 222 212 202 219 228 204 184 173 120 268 292 311 277 244 228 242 290 275
158 156 150 148 149 144 105 78 50 38 63 145 250 86 76 54 94 154 103 96 98 82 106 21 65 92 159 274 287 283 259 250 242 242 214 189 160 178 284 312 254 38 25 45 57 35 10
166 162 156 152 146 136 114 82 53 29 29 74 1 78 93 76 336 100 100 102 73 66 139 95 31 139 251 42 6 335 335 345 272 228 226 202 165 227 223 226 298 306 36 25 316 60 13
177 176 159 154 150 138 120 78 58 36 28 73 35 117 89 113 330 299 102 97 116 77 46 53 0 8 63 77 58 16 305 283 311 322 22 170 189 171 192 271 271 334 333 336 191 109 11
173 164 164 161 145 142 123 100 70 48 30 62 3 10 86 101 330 47 94 126 119 80 93 27 350 11 56 63 63 261 280 325 337 320 331 78 124 206 214 236 280 355 328 314 158 78 58
153 159 150 149 148 140 130 97 76 55 34 55 289 351 107 101 326 31 39 66 45 66 115 268 42 354 30 53 57 275 27 301 293 246 326 43 269 186 206 177 271 1 358 39 36 75 79
156 148 147 149 150 142 129 103 81 62 37 57 40 337 39 90 202 286 158 152 128 162 134 21 159 134 186 82 3 11 340 330 304 357 346 40 350 25 26 71 34 14 38 39 34 76 86